This is the latest recevied weather packets stored in our database for station/object K1LVA. If no packets are shown the sender has not sent any weather packets the latest 10 day(s).
| Time | Temp. | Humidity | Pressure | Rain* | Wind** | Luminosity | Snow |
|---|---|---|---|---|---|---|---|
| 1778242224 | 13.89° C | 99% | 1017 hPa | 0 mm | - | 70 W/m² | - |
| 1778241920 | 13.89° C | 99% | 1016.9 hPa | 0 mm | - | 64 W/m² | - |
| 1778241619 | 13.33° C | 99% | 1016.7 hPa | 0 mm | - | 70 W/m² | - |
| 1778241316 | 13.33° C | 99% | 1016.8 hPa | 0 mm | - | 89 W/m² | - |
| 1778241012 | 12.78° C | 99% | 1016.6 hPa | 0 mm | - | 59 W/m² | - |
| 1778240709 | 12.78° C | 99% | 1016.5 hPa | 0 mm | - | 36 W/m² | - |
| 1778240406 | 12.78° C | 99% | 1016.6 hPa | 0 mm | - | 30 W/m² | - |
| 1778240104 | 12.78° C | 99% | 1016.3 hPa | 0 mm | - | 31 W/m² | - |
| 1778239801 | 12.22° C | 99% | 1016.3 hPa | 0 mm | - | 21 W/m² | - |
| 1778239497 | 12.22° C | 99% | 1016.2 hPa | 0 mm | - | 19 W/m² | - |
| 1778239194 | 12.22° C | 99% | 1016.3 hPa | 0 mm | - | 33 W/m² | - |
| 1778238891 | 12.22° C | 99% | 1016.2 hPa | 0 mm | - | 28 W/m² | - |
| 1778238588 | 11.67° C | 99% | 1016 hPa | 0 mm | - | 26 W/m² | - |
| 1778238286 | 12.22° C | 99% | 1015.9 hPa | 0 mm | - | 28 W/m² | - |
| 1778237985 | 12.22° C | 99% | 1015.9 hPa | 0 mm | - | 18 W/m² | - |
| 1778237682 | 11.67° C | 99% | 1015.8 hPa | 0 mm | - | 16 W/m² | - |
| 1778237379 | 11.67° C | 99% | 1015.8 hPa | 0 mm | - | 12 W/m² | - |
| 1778237077 | 11.67° C | 99% | 1015.7 hPa | 0 mm | - | 7 W/m² | - |
| 1778236773 | 11.67° C | 99% | 1015.3 hPa | 0 mm | - | 4 W/m² | - |
| 1778236470 | 11.67° C | 99% | 1015.7 hPa | 0 mm | - | 3 W/m² | - |
| 1778236167 | 11.67° C | 99% | 1015.5 hPa | 0 mm | - | 0 W/m² | - |
| 1778235866 | 12.22° C | 99% | 1015.4 hPa | 0 mm | - | 0 W/m² | - |
| 1778235562 | 12.22° C | 99% | 1015.4 hPa | 0 mm | - | 0 W/m² | - |
| 1778235260 | 12.22° C | 99% | 1015.1 hPa | 0 mm | - | 0 W/m² | - |
| 1778234957 | 12.22° C | 99% | 1015.2 hPa | 0 mm | - | 0 W/m² | - |
* Rain latest hour (hover to see other rain measurements)
** Current wind speed in m/s (hover to see current wind gust speed)